This is the latest recevied weather packets stored in our database for station/object DG3OBU-6. If no packets are shown the sender has not sent any weather packets the latest 10 day(s).
| Time | Temp. | Humidity | Pressure | Rain* | Wind** | Luminosity | Snow |
|---|---|---|---|---|---|---|---|
| 1777893602 | 19.44° C | 65% | 1011.6 hPa | 0 mm | - | - | - |
| 1777893302 | 19.44° C | 64% | 1011.6 hPa | 0 mm | - | - | - |
| 1777893002 | 19.44° C | 63% | 1011.7 hPa | 0 mm | - | - | - |
| 1777892702 | 20° C | 63% | 1011.6 hPa | 0 mm | - | - | - |
| 1777892402 | 20.56° C | 63% | 1011.7 hPa | 0 mm | - | - | - |
| 1777892102 | 20° C | 62% | 1011.7 hPa | 0 mm | - | - | - |
| 1777891802 | 20.56° C | 61% | 1011.7 hPa | 0 mm | - | - | - |
| 1777891502 | 20.56° C | 64% | 1011.8 hPa | 0 mm | - | - | - |
| 1777891202 | 20° C | 65% | 1011.8 hPa | 0 mm | - | - | - |
| 1777890903 | 19.44° C | 67% | 1011.8 hPa | 0 mm | - | - | - |
| 1777890603 | 19.44° C | 65% | 1011.8 hPa | 0 mm | - | - | - |
| 1777890303 | 18.89° C | 67% | 1011.8 hPa | 0 mm | - | - | - |
| 1777890003 | 18.89° C | 66% | 1011.9 hPa | 0 mm | - | - | - |
| 1777889703 | 19.44° C | 66% | 1011.8 hPa | 0 mm | - | - | - |
| 1777889403 | 18.89° C | 64% | 1011.8 hPa | 0 mm | - | - | - |
| 1777889103 | 18.89° C | 65% | 1011.9 hPa | 0 mm | - | - | - |
| 1777888803 | 18.89° C | 64% | 1012 hPa | 0 mm | - | - | - |
| 1777888503 | 18.89° C | 67% | 1011.9 hPa | 0 mm | - | - | - |
| 1777888203 | 18.89° C | 68% | 1012 hPa | 0 mm | - | - | - |
| 1777887902 | 18.89° C | 67% | 1011.9 hPa | 0 mm | - | - | - |
| 1777887602 | 18.89° C | 66% | 1012 hPa | 0 mm | - | - | - |
| 1777887302 | 18.89° C | 67% | 1012 hPa | 0 mm | - | - | - |
| 1777887002 | 19.44° C | 69% | 1012 hPa | 0 mm | - | - | - |
| 1777886702 | 18.33° C | 69% | 1012.1 hPa | 0 mm | - | - | - |
| 1777886402 | 18.33° C | 70% | 1012 hPa | 0 mm | - | - | - |
* Rain latest hour (hover to see other rain measurements)
** Current wind speed in m/s (hover to see current wind gust speed)